Location: M?digepalle
(16.1753°N, 80.3496°E)
Time: 08:05:30
(UTC+00:00)

Cosmos 1455 - Pass Details

Date: 29 October 2020
Orbit: 499 x 521 km, 82.5° (Epoch: 28 November)

Event Time Altitude Azimuth Distance (km) Brightness Sun altitude
Rises 12:58:53 0° 189° (S) 2,582 6.0 -12.4°
Reaches altitude 10° 13:00:59 10° 191° (S) 1,703 5.1 -12.9°
Maximum altitude 13:04:42 68° 274° (W) 543 2.5 -13.7°
Drops below altitude 10° 13:08:26 10° 358° (N) 1,718 4.8 -14.6°
Sets 13:10:35 0° 1° (N) 2,607 5.7 -15.1°
